Location: Davayat
(45.9471°N, 3.1105°E)
Time: 18:02:01
(UTC+00:00)

Cosmos 1328 Rocket - Pass Details

Date: 01 December 2020
Orbit: 602 x 626 km, 82.5° (Epoch: 17 January)

Event Time Altitude Azimuth Distance (km) Brightness Sun altitude
Rises 17:33:32 0° 195° (SSW) 2,844 7.4 -15.0°
Reaches altitude 10° 17:35:44 10° 198° (SSW) 1,948 6.6 -15.4°
Maximum altitude 17:40:01 65° 280° (W) 672 3.9 -16.1°
Drops below altitude 10° 17:44:22 10° 3° (N) 1,978 6.0 -16.8°
Enters shadow 17:46:31 - 7° (N) 2,844 6.8 -17.2°
